User: anonymous   Login
Location: Unspecified
(0.0000°N, 0.0000°E)
Time: 10:52:38
(UTC+00:00)
Language:

CORVUS BC2 - Orbit

View from above orbital plane
View from above orbital plane
View from above satellite
View from above satellite

Ground track
Ground track

The orbit data is extracted from the following two-line orbital elements,

1 42846U 17042X   21017.15802809  .00000137  00000-0  18652-4 0  9999
2 42846  97.4945 256.7029 0008143 287.7511  72.2819 14.92213104191278
Epoch (UTC): 17 January 2021 03:47:33
Eccentricity: 0.0008143
inclination: 97.4945°
perigee height: 585 km
apogee height: 597 km
right ascension of ascending node: 256.7029°
argument of perigee: 287.7511°
revolutions per day: 14.92213104
mean anomaly at epoch: 72.2819°
orbit number at epoch: 19127

The dashed part of the orbit path shows where the satellite is in the earth's shadow,  

DLR